Location: Grand Mazuras
(45.9128°N, 1.7636°E)
Time: 09:55:31
(UTC+00:00)

N. Korean satellite - Pass Details

Date: 28 September 2021
Orbit: 450 x 495 km, 97.3° (Epoch: 15 October)

Event Time Altitude Azimuth Distance (km) Brightness Sun altitude
Rises 05:13:55 0° 12° (NNE) 2,535 10.4 -6.7°
Reaches altitude 10° 05:15:58 10° 13° (NNE) 1,660 9.5 -6.3°
Maximum altitude 05:19:33 87° 101° (E) 490 6.6 -5.7°
Drops below altitude 10° 05:23:09 10° 193° (SSW) 1,670 9.1 -5.1°
Sets 05:25:13 0° 193° (SSW) 2,552 10.1 -4.7°
